| time (UTC) | temp F | wind direction | speed MPH | gust MPH | rain 1hr in | rain 24hr in | rain mn in | humidity % | barometer mb |
| 20260505080904 | 51 | 212 | 0.0 | 1.0 | 0.00 | 0.00 | 0.00 | 70 | 1010.8 |
| 20260505080004 | 51 | 231 | 0.0 | 1.0 | 0.00 | 0.00 | 0.00 | 70 | 1011.2 |
| 20260505075404 | 51 | 252 | 0.0 | 1.0 | 0.00 | 0.00 | 0.00 | 70 | 1011.2 |
| 20260505074525 | 51 | 247 | 0.0 | 2.0 | 0.00 | 0.00 | 0.00 | 70 | 1011.2 |
| 20260505073604 | 51 | 251 | 0.0 | 1.0 | 0.00 | 0.00 | 0.00 | 70 | 1011.2 |
| 20260505072704 | 50 | 262 | 0.0 | 1.0 | 0.00 | 0.00 | 0.00 | 71 | 1011.2 |
| 20260505071825 | 50 | 262 | 0.0 | 1.0 | 0.00 | 0.00 | 0.00 | 71 | 1011.2 |
| 20260505070904 | 50 | 262 | 0.0 | 1.0 | 0.00 | 0.00 | 0.00 | 71 | 1011.2 |
| 20260505070004 | 50 | 262 | 0.0 | 1.0 | 0.00 | 0.00 | 0.00 | 72 | 1011.5 |
| 20260505065425 | 50 | 262 | 0.0 | 1.0 | 0.00 | 0.00 | 0.00 | 72 | 1011.2 |
| 20260505064504 | 50 | 262 | 0.0 | 1.0 | 0.00 | 0.00 | 0.00 | 73 | 1011.2 |
| 20260505063625 | 50 | 0 | 0.0 | 0.0 | 0.00 | 0.00 | 0.00 | 73 | 1011.2 |
| 20260505062704 | 50 | 0 | 0.0 | 0.0 | 0.00 | 0.00 | 0.00 | 72 | 1011.5 |
| 20260505061804 | 50 | 261 | 0.0 | 1.0 | 0.00 | 0.00 | 0.00 | 72 | 1011.2 |
| 20260505060903 | 50 | 261 | 0.0 | 1.0 | 0.00 | 0.00 | 0.00 | 72 | 1011.5 |
| 20260505060004 | 50 | 0 | 0.0 | 0.0 | 0.00 | 0.00 | 0.00 | 72 | 1011.5 |
| 20260505055404 | 50 | 0 | 0.0 | 0.0 | 0.00 | 0.00 | 0.00 | 71 | 1011.5 |
| 20260505054504 | 50 | 0 | 0.0 | 0.0 | 0.00 | 0.00 | 0.00 | 70 | 1011.5 |
| 20260505053604 | 50 | 0 | 0.0 | 0.0 | 0.00 | 0.00 | 0.00 | 71 | 1011.5 |
| 20260505052703 | 50 | 0 | 0.0 | 0.0 | 0.00 | 0.00 | 0.00 | 70 | 1011.5 |
| 20260505051824 | 50 | 261 | 0.0 | 1.0 | 0.00 | 0.00 | 0.00 | 71 | 1011.9 |
| 20260505050924 | 50 | 261 | 0.0 | 1.0 | 0.00 | 0.00 | 0.00 | 70 | 1011.9 |
| 20260505040904 | 52 | 256 | 0.0 | 1.0 | 0.00 | 0.00 | 0.00 | 65 | 1011.9 |
| 20260505040004 | 52 | 256 | 0.0 | 1.0 | 0.00 | 0.00 | 0.00 | 65 | 1012.2 |
| 20260505035404 | 52 | 256 | 0.0 | 1.0 | 0.00 | 0.00 | 0.00 | 65 | 1012.2 |
| 20260505034503 | 53 | 256 | 0.0 | 1.0 | 0.00 | 0.00 | 0.00 | 65 | 1012.2 |
| 20260505033603 | 53 | 257 | 0.0 | 1.0 | 0.00 | 0.00 | 0.00 | 64 | 1011.9 |
| 20260505032704 | 53 | 257 | 0.0 | 1.0 | 0.00 | 0.00 | 0.00 | 63 | 1011.9 |
| 20260505031804 | 53 | 257 | 0.0 | 1.0 | 0.00 | 0.00 | 0.00 | 63 | 1012.2 |
| 20260505030903 | 53 | 257 | 0.0 | 1.0 | 0.00 | 0.00 | 0.00 | 63 | 1012.2 |
| 20260505030004 | 53 | 257 | 0.0 | 1.0 | 0.00 | 0.00 | 0.00 | 62 | 1012.2 |
| 20260505025404 | 54 | 258 | 0.0 | 1.0 | 0.00 | 0.00 | 0.00 | 61 | 1011.9 |
| 20260505024525 | 54 | 246 | 0.0 | 1.0 | 0.00 | 0.00 | 0.00 | 60 | 1011.9 |
| 20260505023604 | 54 | 237 | 0.0 | 1.0 | 0.00 | 0.00 | 0.00 | 59 | 1012.2 |
| 20260505022703 | 55 | 236 | 0.0 | 1.0 | 0.00 | 0.00 | 0.00 | 58 | 1012.2 |
| 20260505021804 | 55 | 228 | 0.0 | 1.0 | 0.00 | 0.00 | 0.00 | 57 | 1012.2 |
| 20260505020925 | 55 | 242 | 0.0 | 1.0 | 0.00 | 0.00 | 0.00 | 56 | 1012.2 |
| 20260505020003 | 55 | 246 | 0.0 | 2.0 | 0.00 | 0.00 | 0.00 | 56 | 1011.9 |
| 20260505015404 | 55 | 257 | 0.0 | 1.0 | 0.00 | 0.00 | 0.00 | 56 | 1011.9 |
| 20260505014503 | 56 | 262 | 0.0 | 2.0 | 0.00 | 0.00 | 0.00 | 54 | 1011.9 |
| 20260505013603 | 56 | 263 | 0.0 | 2.0 | 0.00 | 0.00 | 0.00 | 53 | 1011.9 |
| 20260505012704 | 56 | 274 | 0.0 | 1.0 | 0.00 | 0.00 | 0.00 | 52 | 1011.9 |
| 20260505011803 | 57 | 271 | 0.0 | 1.0 | 0.00 | 0.00 | 0.00 | 51 | 1011.5 |
| 20260505010903 | 57 | 258 | 0.0 | 2.0 | 0.00 | 0.00 | 0.00 | 51 | 1011.9 |
| 20260505010004 | 57 | 253 | 0.0 | 1.0 | 0.00 | 0.00 | 0.00 | 51 | 1011.5 |
| 20260505005404 | 58 | 218 | 0.0 | 1.0 | 0.00 | 0.00 | 0.00 | 50 | 1011.5 |
| 20260505004503 | 58 | 239 | 0.0 | 2.0 | 0.00 | 0.00 | 0.00 | 49 | 1011.2 |
| 20260505003625 | 59 | 253 | 0.0 | 3.0 | 0.00 | 0.00 | 0.00 | 48 | 1011.2 |
| 20260505002704 | 59 | 239 | 0.0 | 2.0 | 0.00 | 0.00 | 0.00 | 48 | 1011.2 |
| 20260505001803 | 60 | 188 | 0.0 | 1.0 | 0.00 | 0.00 | 0.00 | 47 | 1010.8 |
| 20260505000903 | 61 | 259 | 0.0 | 2.0 | 0.00 | 0.00 | 0.00 | 45 | 1010.5 |
| 20260505000004 | 62 | 123 | 0.0 | 2.0 | 0.00 | 0.00 | 0.00 | 45 | 1010.5 |
| 20260504235403 | 62 | 150 | 1.0 | 4.0 | 0.00 | 0.00 | 0.00 | 44 | 1010.5 |
| 20260504234503 | 62 | 190 | 1.0 | 4.0 | 0.00 | 0.00 | 0.00 | 45 | 1010.5 |
| 20260504233603 | 62 | 147 | 1.0 | 4.0 | 0.00 | 0.00 | 0.00 | 45 | 1010.1 |
| 20260504232703 | 62 | 321 | 1.0 | 3.0 | 0.00 | 0.00 | 0.00 | 43 | 1010.1 |
| 20260504231803 | 63 | 111 | 1.0 | 6.0 | 0.00 | 0.00 | 0.00 | 44 | 1010.1 |
| 20260504230903 | 64 | 206 | 1.0 | 7.0 | 0.00 | 0.00 | 0.00 | 41 | 1009.8 |
| 20260504230003 | 65 | 229 | 1.0 | 8.0 | 0.00 | 0.00 | 0.00 | 40 | 1009.4 |
| 20260504225403 | 66 | 199 | 1.0 | 8.0 | 0.00 | 0.00 | 0.00 | 38 | 1009.4 |
| 20260504224503 | 67 | 151 | 2.0 | 7.0 | 0.00 | 0.00 | 0.00 | 35 | 1009.4 |
| 20260504223603 | 68 | 238 | 1.0 | 4.0 | 0.00 | 0.00 | 0.00 | 32 | 1009.4 |
| 20260504222703 | 68 | 193 | 1.0 | 9.0 | 0.00 | 0.00 | 0.00 | 32 | 1009.4 |
| 20260504221803 | 68 | 230 | 1.0 | 3.0 | 0.00 | 0.00 | 0.00 | 32 | 1009.4 |
| 20260504220903 | 69 | 237 | 1.0 | 4.0 | 0.00 | 0.00 | 0.00 | 31 | 1009.4 |
| 20260504220003 | 69 | 196 | 1.0 | 7.0 | 0.00 | 0.00 | 0.00 | 31 | 1009.4 |
| 20260504215403 | 69 | 248 | 1.0 | 7.0 | 0.00 | 0.00 | 0.00 | 30 | 1009.4 |
| 20260504214503 | 69 | 221 | 1.0 | 4.0 | 0.00 | 0.00 | 0.00 | 30 | 1009.4 |
| 20260504213624 | 69 | 246 | 1.0 | 4.0 | 0.00 | 0.00 | 0.00 | 30 | 1009.4 |
| 20260504212703 | 69 | 218 | 1.0 | 6.0 | 0.00 | 0.00 | 0.00 | 30 | 1009.8 |
| 20260504211824 | 69 | 237 | 2.0 | 6.0 | 0.00 | 0.00 | 0.00 | 29 | 1009.4 |
| 20260504210924 | 69 | 239 | 2.0 | 4.0 | 0.00 | 0.00 | 0.00 | 31 | 1009.8 |
| 20260504210003 | 69 | 242 | 1.0 | 4.0 | 0.00 | 0.00 | 0.00 | 30 | 1009.4 |
| 20260504205403 | 68 | 229 | 2.0 | 4.0 | 0.00 | 0.00 | 0.00 | 30 | 1009.8 |
| 20260504204503 | 69 | 236 | 1.0 | 4.0 | 0.00 | 0.00 | 0.00 | 30 | 1009.4 |
| 20260504203603 | 70 | 234 | 2.0 | 8.0 | 0.00 | 0.00 | 0.00 | 29 | 1009.8 |
| 20260504202703 | 69 | 251 | 1.0 | 8.0 | 0.00 | 0.00 | 0.00 | 29 | 1009.8 |
| 20260504201803 | 69 | 239 | 1.0 | 7.0 | 0.00 | 0.00 | 0.00 | 31 | 1009.4 |
| 20260504200903 | 69 | 240 | 2.0 | 7.0 | 0.00 | 0.00 | 0.00 | 30 | 1009.8 |
| 20260504200004 | 69 | 265 | 2.0 | 7.0 | 0.00 | 0.00 | 0.00 | 29 | 1010.1 |
| 20260504195426 | 69 | 265 | 2.0 | 8.0 | 0.00 | 0.00 | 0.00 | 30 | 1010.1 |
| 20260504194505 | 70 | 258 | 2.0 | 8.0 | 0.00 | 0.00 | 0.00 | 30 | 1010.1 |
| 20260504193604 | 70 | 237 | 2.0 | 6.0 | 0.00 | 0.00 | 0.00 | 31 | 1010.1 |
| 20260504192726 | 70 | 247 | 2.0 | 8.0 | 0.00 | 0.00 | 0.00 | 30 | 1010.1 |
| 20260504191805 | 70 | 242 | 2.0 | 8.0 | 0.00 | 0.00 | 0.00 | 31 | 1010.1 |
| 20260504190905 | 70 | 242 | 2.0 | 8.0 | 0.00 | 0.00 | 0.00 | 31 | 1010.1 |
| 20260504190004 | 70 | 235 | 3.0 | 11.0 | 0.00 | 0.00 | 0.00 | 31 | 1010.1 |
| 20260504185405 | 70 | 242 | 3.0 | 9.0 | 0.00 | 0.00 | 0.00 | 31 | 1010.1 |
| 20260504184505 | 69 | 249 | 2.0 | 7.0 | 0.00 | 0.00 | 0.00 | 31 | 1010.1 |
| 20260504183605 | 69 | 252 | 3.0 | 10.0 | 0.00 | 0.00 | 0.00 | 32 | 1010.5 |
| 20260504182705 | 69 | 246 | 2.0 | 4.0 | 0.00 | 0.00 | 0.00 | 32 | 1010.5 |
| 20260504181805 | 69 | 229 | 2.0 | 7.0 | 0.00 | 0.00 | 0.00 | 32 | 1010.5 |
| 20260504180905 | 69 | 291 | 3.0 | 11.0 | 0.00 | 0.00 | 0.00 | 31 | 1010.5 |
| 20260504180026 | 69 | 242 | 2.0 | 6.0 | 0.00 | 0.00 | 0.00 | 32 | 1010.5 |
| 20260504175404 | 69 | 248 | 2.0 | 11.0 | 0.00 | 0.00 | 0.00 | 31 | 1010.5 |
| 20260504174504 | 69 | 252 | 2.0 | 8.0 | 0.00 | 0.00 | 0.00 | 32 | 1010.5 |
| 20260504173604 | 69 | 265 | 2.0 | 13.0 | 0.00 | 0.00 | 0.00 | 31 | 1010.5 |
| 20260504172704 | 68 | 260 | 3.0 | 9.0 | 0.00 | 0.00 | 0.00 | 30 | 1010.8 |
| 20260504171805 | 69 | 231 | 2.0 | 7.0 | 0.00 | 0.00 | 0.00 | 32 | 1010.8 |
| 20260504170925 | 69 | 211 | 2.0 | 10.0 | 0.00 | 0.00 | 0.00 | 32 | 1010.8 |
| 20260504150904 | 62 | 242 | 2.0 | 7.0 | 0.00 | 0.00 | 0.00 | 33 | 1011.9 |
| 20260504140926 | 60 | 230 | 3.0 | 8.0 | 0.00 | 0.00 | 0.00 | 36 | 1012.6 |
| 20260504081825 | 42 | 241 | 0.0 | 2.0 | 0.00 | 0.00 | 0.00 | 59 | 1012.2 |